Regional Weather Roundup
Issued by NWS Northern Indiana

Home | Current Version | Previous Version | Graphics & Text | Print | Product List | Glossary On
Versions: 1 2 3 4 5 6 7 8 9 10 11 12 13 14 15 16 17 18 19 20 21 22 23 24 25 26 27 28 29 30 31 32 33 34 35 36 37 38 39 40 41 42 43 44 45 46 47 48 49 50
314
ASUS43 KIWX 241200
RWRIWX

KIWX WEATHER ROUNDUP
NATIONAL WEATHER SERVICE NORTHERN INDIANA
800 AM EDT TUE MAY 24 2016

NOTE: "FAIR" INDICATES FEW OR NO CLOUDS BELOW 12,000 FEET WITH NO
SIGNIFICANT WEATHER AND/OR OBSTRUCTIONS TO VISIBILITY.

* THESE STATIONS ARE NOT UNDER NWS QUALITY CONTROL. THEY ALSO MAY NOT
  REPORT WEATHER SUCH AS PRECIPITATION OR FOG.

INZ001>027-241300-
NORTHERN INDIANA

CITY           SKY/WX    TMP DP  RH WIND       PRES   REMARKS
GARY*          PTSUNNY   66  52  59 S5        30.01R
SOUTH BEND     SUNNY     61  44  53 SW8       30.04R
6HR MIN TEMP:  51; 6HR MAX TEMP:  61;

ELKHART*       SUNNY     55  54  94 MISG      30.04R
GOSHEN         SUNNY     60  44  55 SW7       30.04R
6HR MIN TEMP:  45; 6HR MAX TEMP:  60;

ANGOLA*        SUNNY     55  54  94 CALM      30.05R
FORT WAYNE     MOSUNNY   58  49  72 SW5       30.07R
6HR MIN TEMP:  49; 6HR MAX TEMP:  58;


$$
INZ028>050-241300-
CENTRAL INDIANA

CITY           SKY/WX    TMP DP  RH WIND       PRES   REMARKS
LAFAYETTE      MOSUNNY   60  49  66 E3        30.04R
6HR MIN TEMP:  50; 6HR MAX TEMP:  60;

KOKOMO*        SUNNY     61  46  59 S6        30.06S
6HR MIN TEMP:  52; 6HR MAX TEMP:  61;

MUNCIE*        SUNNY     63  49  60 S7        30.08R
6HR MIN TEMP:  56; 6HR MAX TEMP:  63;

INDIANAPOLIS   CLOUDY    60  50  69 SE3       30.06R
6HR MIN TEMP:  54; 6HR MAX TEMP:  62;


$$
MIZ043>046-050>051-056>058-064>065-071>073-077>080-241300-
SOUTHWEST LOWER MICHIGAN

CITY           SKY/WX    TMP DP  RH WIND       PRES   REMARKS
BATTLE CREEK   SUNNY     58  43  57 SW6       30.04R
6HR MIN TEMP:  48; 6HR MAX TEMP:  58;

BENTON HARBOR  SUNNY     63  43  48 S6        30.01R
6HR MIN TEMP:  55; 6HR MAX TEMP:  63;

COLDWATER*     SUNNY     60  45  57 SW3       30.05R
6HR MIN TEMP:  45; 6HR MAX TEMP:  60;

HILLSDALE*     SUNNY     64  34  33 SW6       30.05R
6HR MIN TEMP:  49; 6HR MAX TEMP:  64;

HOLLAND        SUNNY     66  45  46 SW9       30.00R
6HR MIN TEMP:  54; 6HR MAX TEMP:  66;

GRAND RAPIDS   MOSUNNY   59  45  59 S5        30.01R
6HR MIN TEMP:  52; 6HR MAX TEMP:  59;

KALAMAZOO      SUNNY     59  44  57 S5        30.04R
6HR MIN TEMP:  48; 6HR MAX TEMP:  59;

STURGIS*       SUNNY     58  44  61 SW3       30.04R
6HR MIN TEMP:  50; 6HR MAX TEMP:  58;

THREE RIVERS*  FAIR      57  45  64 S5        30.04S

$$
OHZ001>008-015>018-024>025-241300-
NORTHWEST OHIO

CITY           SKY/WX    TMP DP  RH WIND       PRES   REMARKS
DEFIANCE       SUNNY     57  50  77 CALM      30.07R
6HR MIN TEMP:  48; 6HR MAX TEMP:  57;

FINDLAY        SUNNY     60  50  69 S5        30.07R
6HR MIN TEMP:  51; 6HR MAX TEMP:  60;

TOLEDO EXPRESS SUNNY     57  49  74 SW3       30.05R
6HR MIN TEMP:  47; 6HR MAX TEMP:  57;

TOLEDO METCALF SUNNY     60  49  66 W7        30.07R
6HR MIN TEMP:  52; 6HR MAX TEMP:  60;

LIMA           SUNNY     61  49  64 SW6       30.08R
6HR MIN TEMP:  54; 6HR MAX TEMP:  61;


$$
AND FOR LAKE MICHIGAN COASTAL AND OPEN LAKE BUOY OBSERVATIONS

STATION/POSITION TEMP    WIND        PRES    VSBY  WAVE
                 AIR SEA DIR/SP/G                  HT/PER
                 (F)     (DEG/KT/KT) (MB)    (MI)  (FT/S)
CALUMET HARBOR    64     190/  4/  6 1014.9R
MICHIGAN CITY     66     160/ 13/ 14   N/A
BURNS HARBOR      64     190/ 11/ 15 1016.3R
SAINT JOSEPH      64     160/  6/ 12 1016.6R
SOUTH LAKE BUOY   52 47  170/ 10/ 12 1014.6          1
4 MI NW BRIDGMAN  60 56  180/  6/  8   N/A           1
MICHIGAN CITY     62 56  200/  8/ 10   N/A           1/ 2

$$
&&




USA.gov is the U.S. government's official web portal to all federal, state and local government web resources and services.